This is the latest recevied weather packets stored in our database for station/object KJ7HSW. If no packets are shown the sender has not sent any weather packets the latest 10 day(s).
| Time | Temp. | Humidity | Pressure | Rain* | Wind** | Luminosity | Snow |
|---|---|---|---|---|---|---|---|
| 1777682266 | 25° C | 36% | 1014.1 hPa | 0 mm | - | 151 W/m² | - |
| 1777681963 | 25° C | 37% | 1014.2 hPa | 0 mm | - | 173 W/m² | - |
| 1777681658 | 24.44° C | 40% | 1014.1 hPa | 0 mm | - | 190 W/m² | - |
| 1777681356 | 25° C | 36% | 1014.3 hPa | 0 mm | - | 185 W/m² | - |
| 1777681053 | 25° C | 39% | 1014.1 hPa | 0 mm | - | 213 W/m² | - |
| 1777680752 | 25° C | 38% | 1014.1 hPa | 0 mm | - | 162 W/m² | - |
| 1777680449 | 25° C | 41% | 1014.1 hPa | 0 mm | - | 175 W/m² | - |
| 1777680147 | 25° C | 39% | 1014.2 hPa | 0 mm | - | 115 W/m² | - |
| 1777679842 | 25.56° C | 38% | 1014.2 hPa | 0 mm | - | 171 W/m² | - |
| 1777679538 | 25.56° C | 38% | 1014.3 hPa | 0 mm | - | 130 W/m² | - |
| 1777679234 | 26.11° C | 35% | 1014.2 hPa | 0 mm | - | 426 W/m² | - |
| 1777678931 | 25.56° C | 39% | 1014.3 hPa | 0 mm | - | 443 W/m² | - |
| 1777678629 | 25.56° C | 36% | 1014.3 hPa | 0 mm | - | 453 W/m² | - |
| 1777678326 | 25.56° C | 35% | 1014.4 hPa | 0 mm | - | 491 W/m² | - |
| 1777678022 | 25.56° C | 36% | 1014.5 hPa | 0 mm | - | 487 W/m² | - |
| 1777677719 | 26.11° C | 35% | 1014.5 hPa | 0 mm | - | 378 W/m² | - |
| 1777677417 | 25.56° C | 34% | 1014.6 hPa | 0 mm | - | 487 W/m² | - |
| 1777677115 | 25.56° C | 37% | 1014.5 hPa | 0 mm | - | 529 W/m² | - |
| 1777676813 | 25.56° C | 35% | 1014.5 hPa | 0 mm | - | 560 W/m² | - |
| 1777676511 | 26.11° C | 37% | 1014.6 hPa | 0 mm | - | 546 W/m² | - |
| 1777676209 | 26.11° C | 36% | 1014.7 hPa | 0 mm | - | 590 W/m² | - |
| 1777675905 | 25.56° C | 38% | 1014.6 hPa | 0 mm | - | 610 W/m² | - |
| 1777675602 | 25.56° C | 35% | 1014.6 hPa | 0 mm | - | 623 W/m² | - |
| 1777675299 | 25.56° C | 37% | 1014.8 hPa | 0 mm | - | 645 W/m² | - |
| 1777674995 | 25.56° C | 37% | 1014.9 hPa | 0 mm | - | 598 W/m² | - |
* Rain latest hour (hover to see other rain measurements)
** Current wind speed in m/s (hover to see current wind gust speed)